Location: Ettringen
(48.1054°N, 10.6545°E)
Time: 06:14:21
(UTC+00:00)

SJ-6F - Pass Details

Date: 18 November 2025
Orbit: 543 x 570 km, 97.9° (Epoch: 10 December)

Event Time Altitude Azimuth Distance (km) Brightness Sun altitude
Rises 16:59:29 0° 164° (SSE) 2,694 7.8 -13.8°
Reaches altitude 10° 17:01:35 10° 164° (SSE) 1,806 6.9 -14.1°
Maximum altitude 17:05:30 87° 79° (E) 552 4.2 -14.8°
Drops below altitude 10° 17:09:27 10° 347° (NNW) 1,826 7.0 -15.4°
Sets 17:11:35 0° 347° (NNW) 2,727 7.9 -15.8°
